Volver al catálogo

STARLINK-32180

ActivoComunicacionesVLEO
NORAD 60374·PAYLOAD·🇺🇸 United States

Lanzado Aug 4, 2024 desde Vandenberg Space Force Base

Loading…

Próximos Pases (próximas 24 horas)

TLE

ActualizadoSource: CelesTrak SupGP

Época: Sep 14, 2026, 22:16 UTC

1 60374C 24138V   26257.92826389 -.00046777  00000+0 -15041-2 0  2579
2 60374  53.1582 149.3260 0001385  82.7141 109.4432 15.31727169    17

Sigue STARLINK-32180 en tiempo real con AllMySat

Download on the App Store